EW9826 Weather Reports


time (UTC)temp
C
wind
direction
speed
KPH
gust
KPH
rain 1hr
cm
rain 24hr
cm
rain mn
cm
humidity
%
barometer
mb
20260831122051 19 259 16.1 35.4 0.13 1.14 0.48 75 1009.5
20260831121549 19 269 12.9 24.1 0.15 1.14 0.48 80 1009.4
20260831121051 18 252 11.3 24.1 0.18 1.14 0.48 83 1009.2
20260831120049 17 270 11.3 22.5 0.20 1.14 0.48 88 1009.1
20260831115549 17 255 11.3 27.4 0.20 1.14 0.48 90 1009.1
20260831115050 17 229 9.7 16.1 0.20 1.14 0.48 90 1009.1
20260831114550 16 233 6.4 14.5 0.20 1.14 0.48 90 1009.1
20260831114050 16 246 8.0 14.5 0.23 1.14 0.48 90 1009.1
20260831112050 16 252 16.1 25.7 0.10 1.02 0.36 88 1009.1
20260831111550 16 247 11.3 27.4 0.08 0.99 0.33 87 1009.0
20260831111050 16 254 12.9 27.4 0.10 0.97 0.30 87 1009.0
20260831110050 17 238 16.1 32.2 0.08 0.94 0.28 85 1008.9
20260831105549 17 263 9.7 27.4 0.08 0.94 0.28 84 1008.8
20260831105050 17 255 14.5 27.4 0.08 0.94 0.28 83 1008.7
20260831104549 17 259 11.3 22.5 0.08 0.94 0.28 83 1008.6
20260831104050 17 231 8.0 22.5 0.05 0.91 0.25 86 1008.5
20260831103550 17 279 11.3 22.5 0.05 0.91 0.25 87 1008.4
20260831102050 17 252 9.7 24.1 0.05 0.91 0.25 84 1008.1
20260831101549 17 253 12.9 24.1 0.05 0.89 0.23 82 1008.2
20260831101050 17 298 11.3 32.2 0.00 0.86 0.20 79 1008.1
20260831095550 19 227 11.3 27.4 0.00 0.91 0.20 77 1007.9
20260831095050 18 229 11.3 33.8 0.00 0.99 0.20 78 1007.7
20260831093549 19 224 19.3 35.4 0.00 0.99 0.20 75 1007.6
20260831091050 18 222 9.7 33.8 0.00 0.99 0.20 77 1007.4
20260831090049 18 221 11.3 32.2 0.00 1.02 0.20 78 1007.2
20260831085549 18 223 19.3 33.8 0.00 1.02 0.20 79 1007.2
20260831085050 18 204 14.5 35.4 0.00 1.02 0.20 80 1007.2
20260831084549 18 223 11.3 32.2 0.03 1.02 0.20 81 1007.3
20260831081551 18 198 14.5 27.4 0.05 1.07 0.20 83 1007.0
20260831081050 18 248 16.1 33.8 0.05 1.07 0.20 84 1007.0
20260831080049 17 234 16.1 33.8 0.05 1.14 0.20 86 1006.7
20260831075549 17 241 20.9 38.6 0.05 1.17 0.20 86 1006.8
20260831074549 17 219 16.1 25.7 0.03 1.17 0.18 86 1006.6
20260831073050 17 207 14.5 27.4 0.03 1.14 0.15 86 1006.5
20260831072549 17 258 12.9 32.2 0.03 1.14 0.15 87 1006.5
20260831072050 17 216 11.3 29.0 0.03 1.14 0.15 88 1006.6
20260831071549 17 196 14.5 27.4 0.03 1.14 0.15 89 1006.7
20260831071050 17 208 11.3 29.0 0.03 1.14 0.15 90 1006.7
20260831063549 17 207 4.8 22.5 0.08 1.17 0.15 90 1007.0
20260831063049 17 210 6.4 16.1 0.10 1.17 0.15 91 1007.2
20260831061049 16 207 9.7 19.3 0.13 1.17 0.15 91 1007.5
20260831060049 17 185 11.3 24.1 0.13 1.19 0.15 91 1007.6
20260831055550 17 237 9.7 20.9 0.13 1.19 0.15 91 1007.5
20260831054049 17 214 11.3 24.1 0.08 1.19 0.10 89 1007.0
20260831053549 17 238 11.3 24.1 0.05 1.17 0.05 89 1007.0
20260831043549 17 203 6.4 16.1 0.00 1.17 0.03 87 1007.1
20260831043050 17 213 9.7 20.9 0.00 1.17 0.03 88 1007.2
20260831040049 17 230 4.8 16.1 0.00 1.17 0.03 88 1007.0
20260831035549 17 203 8.0 19.3 0.00 1.17 0.03 88 1007.0
20260831035049 17 229 8.0 16.1 0.00 1.17 0.03 88 1007.0
20260831034550 17 212 8.0 19.3 0.00 1.17 0.03 88 1007.0
20260831033049 17 207 6.4 12.9 0.00 1.17 0.03 88 1007.1
20260831032548 17 215 4.8 14.5 0.00 1.19 0.03 88 1007.1
20260831032049 17 211 8.0 16.1 0.00 1.19 0.03 88 1007.3
20260831031548 17 222 6.4 16.1 0.00 1.19 0.03 88 1007.3
20260831031049 17 248 8.0 22.5 0.00 1.19 0.03 88 1007.5
20260831030048 17 229 9.7 16.1 0.00 1.19 0.03 88 1007.5
20260831025549 17 182 9.7 14.5 0.00 1.19 0.03 88 1007.6
20260831025050 17 238 6.4 14.5 0.00 1.19 0.03 89 1007.6
20260831024549 17 201 6.4 14.5 0.00 1.19 0.03 89 1007.6
20260831024049 17 197 8.0 12.9 0.00 1.19 0.03 89 1007.6
20260831023549 17 224 4.8 14.5 0.00 1.19 0.03 90 1007.7
20260831023049 17 198 4.8 19.3 0.00 1.19 0.03 90 1007.6
20260831022548 17 206 8.0 12.9 0.00 1.19 0.03 91 1007.6
20260831022049 17 207 4.8 12.9 0.00 1.19 0.03 91 1007.6
20260831021548 17 207 4.8 11.3 0.00 1.19 0.03 92 1007.6
20260831021051 17 208 6.4 11.3 0.00 1.19 0.03 92 1007.6
20260831015049 17 206 4.8 9.7 0.00 1.19 0.03 92 1007.6
20260831014548 17 207 4.8 9.7 0.00 1.19 0.03 92 1007.6
20260831014050 17 207 3.2 8.0 0.00 1.19 0.03 92 1007.6
20260831013548 17 207 3.2 4.8 0.00 1.19 0.03 92 1007.6
20260831013049 17 207 1.6 4.8 0.00 1.19 0.03 92 1007.5
20260831012548 17 207 1.6 4.8 0.00 1.19 0.03 92 1007.6
20260831012049 17 207 4.8 11.3 0.00 1.19 0.03 92 1007.9
20260831011549 17 206 4.8 9.7 0.00 1.19 0.03 92 1008.0
20260831011051 17 206 4.8 11.3 0.00 1.19 0.03 92 1008.0
20260831010049 17 205 3.2 8.0 0.00 1.19 0.03 92 1008.0
20260831005548 17 205 3.2 11.3 0.00 1.19 0.03 92 1007.9
20260831005049 17 205 3.2 9.7 0.00 1.19 0.03 91 1007.9
20260830235548 17 213 1.6 4.8 0.03 1.63 0.03 93 1008.1
20260830235048 17 213 3.2 9.7 0.03 1.68 0.03 93 1008.2
20260830233549 17 212 8.0 11.3 0.03 1.75 0.03 93 1008.5
20260830233048 17 204 4.8 11.3 0.03 1.75 0.03 93 1008.6
20260830231548 17 198 6.4 12.9 0.00 1.75 0.00 94 1008.6
20260830231048 17 236 4.8 14.5 0.00 1.75 0.00 94 1008.6
20260830224549 17 172 3.2 9.7 0.00 1.75 0.00 94 1008.6
20260830223049 17 217 0.0 0.0 0.00 1.75 0.00 94 1008.6
20260830221049 17 217 1.6 3.2 0.00 1.75 0.00 94 1008.9
20260830215049 17 217 0.0 1.6 0.10 1.78 1.78 93 1009.1
20260830214548 17 217 1.6 3.2 0.10 1.78 1.78 93 1009.1
20260830214049 17 217 1.6 4.8 0.10 1.78 1.78 93 1009.1
20260830213548 17 217 1.6 3.2 0.10 1.78 1.78 93 1009.1
20260830212049 17 217 1.6 3.2 0.36 1.83 1.78 93 1009.2
20260830211547 17 217 3.2 4.8 0.64 1.83 1.78 92 1009.4
20260830211049 17 217 1.6 11.3 0.66 1.83 1.78 92 1009.4
20260830210048 17 252 6.4 14.5 0.66 1.85 1.78 92 1009.5
20260830205049 17 271 3.2 4.8 0.56 1.75 1.68 91 1009.6
20260830203049 17 271 6.4 12.9 0.53 1.75 1.65 88 1009.7
20260830201049 20 183 1.6 4.8 0.00 1.19 1.12 80 1009.6
20260830193048 20 222 3.2 4.8 0.00 1.19 1.12 81 1009.6
20260830192548 20 222 1.6 4.8 0.00 1.27 1.12 80 1009.6
20260830192049 20 222 1.6 4.8 0.00 1.40 1.12 81 1009.7
20260830191548 20 222 1.6 4.8 0.00 1.47 1.12 81 1009.6
20260830191049 20 222 1.6 4.8 0.00 1.60 1.12 81 1009.7
20260830190048 20 222 1.6 4.8 0.00 1.83 1.12 81 1009.7
20260830185548 20 222 3.2 4.8 0.00 1.85 1.12 81 1009.7
20260830183049 20 222 0.0 0.0 0.00 2.08 1.12 81 1009.9
20260830182548 20 222 0.0 0.0 0.00 2.11 1.12 81 1010.0
20260830182049 20 222 0.0 0.0 0.00 2.11 1.12 81 1010.0
20260830181548 20 222 0.0 0.0 0.00 2.11 1.12 80 1010.0
20260830175548 20 222 0.0 0.0 0.00 2.13 1.12 79 1010.0
20260830175048 20 222 0.0 0.0 0.00 2.21 1.12 79 1010.1
20260830174548 20 222 0.0 0.0 0.00 2.21 1.12 79 1010.1
20260830174049 21 222 0.0 0.0 0.00 2.21 1.12 78 1010.1
20260830173549 21 222 0.0 0.0 0.00 2.21 1.12 78 1010.2
20260830165548 21 222 3.2 4.8 0.00 2.26 1.12 76 1010.6
20260830163048 21 263 9.7 14.5 0.00 2.29 1.12 75 1010.6
20260830162547 21 244 6.4 11.3 0.00 2.29 1.12 75 1010.6
20260830162048 21 215 4.8 14.5 0.00 2.29 1.12 75 1010.6
20260830161547 21 201 4.8 11.3 0.00 2.29 1.12 75 1010.6
20260830161048 21 258 3.2 14.5 0.00 2.29 1.12 75 1010.7
20260830153547 21 234 8.0 16.1 0.00 2.31 1.12 73 1010.9
20260830152048 21 254 8.0 16.1 0.00 2.31 1.12 72 1011.1
20260830151547 21 263 8.0 19.3 0.00 2.31 1.12 72 1011.1
20260830150048 21 249 9.7 20.9 0.00 2.31 1.12 74 1011.1
20260830145547 21 249 9.7 22.5 0.00 2.31 1.12 75 1011.1
20260830144547 21 257 8.0 16.1 0.00 2.31 1.12 75 1011.2
20260830144049 21 243 9.7 19.3 0.00 2.31 1.12 75 1011.2
20260830143548 21 263 9.7 19.3 0.00 2.31 1.12 75 1011.1
20260830143048 21 242 9.7 16.1 0.00 2.31 1.12 75 1011.2
20260830142547 21 238 8.0 20.9 0.00 2.31 1.12 75 1011.2
20260830142047 21 225 9.7 16.1 0.00 2.31 1.12 76 1011.1
20260830141548 21 243 9.7 19.3 0.00 2.31 1.12 77 1011.1
20260830141048 21 254 6.4 19.3 0.00 2.31 1.12 79 1011.1
20260830134547 20 256 6.4 14.5 0.00 2.31 1.12 82 1011.1
20260830133047 20 255 8.0 19.3 0.00 2.31 1.12 82 1011.2
20260830132548 20 232 8.0 14.5 0.00 2.31 1.12 82 1011.2
20260830132048 20 242 9.7 19.3 0.00 2.31 1.12 82 1011.2
20260830125048 20 245 8.0 16.1 0.00 2.31 1.12 82 1011.1
20260830124547 20 254 9.7 16.1 0.00 2.31 1.12 82 1011.1
20260830124047 20 277 9.7 19.3 0.00 2.31 1.12 82 1011.0
20260830123547 20 315 8.0 20.9 0.00 2.31 1.12 82 1011.0
20260830123048 20 284 8.0 14.5 0.00 2.31 1.12 82 1011.0